User: anonymous   Login
Location: Unspecified
(0.0000°N, 0.0000°E)
Time: 12:58:14
(UTC+00:00)
Language:

GONETS M 13 (M23) - Orbit

View from above orbital plane
View from above orbital plane
View from above satellite
View from above satellite

Ground track
Ground track

The orbit data is extracted from the following two-line orbital elements,

1 40554U 15020C   17351.77947308  .00000030  00000-0  14659-3 0  9999
2 40554  82.4827 164.4809 0012218 259.5309 100.4394 12.42894694123253
Epoch (UTC): 17 December 2017 18:42:26
Eccentricity: 0.0012218
inclination: 82.4827°
perigee height: 1485 km
apogee height: 1504 km
right ascension of ascending node: 164.4809°
argument of perigee: 259.5309°
revolutions per day: 12.42894694
mean anomaly at epoch: 100.4394°
orbit number at epoch: 12325

The dashed part of the orbit path shows where the satellite is in the earth's shadow,  

DLR